Weather in Tornio

Finland     65°50′58″N   24°09′47″E
В апреле 2022 года жителям России запретили посещать сайт meteo.paraplan.net по решению Генеральной прокуратуры. Аудитория сайта уменьшилась в 10 раз. Владельцы сайта не видят смысла в поддержке погодного сервера в таких условиях. Сайт будет закрыт в октябре.
temp.,
°C
wind,
m/s
gust,
m/s
humid.,
%
clouds,
%
prec.,
mm/h
press.,
hPa
HPBL,
m
30 september, fri
fri3000:00+6e677299 0.0 1011613
03:00+5ene4575100 0.0 1010572
06:00+4ene5579100 0.0 1009566
09:00+3ene458799 0.0 1009538
12:00+3ene4490100 0.1 1009617
15:00+3ne3496100 0.3 1009354
18:00+4ene3383100 0.2 1009433
21:00+4ene2281100 0.3 1009359
1 october, sat
sat100:00+4nne1180100 0.1 1009378
03:00+4nne1178100 0.2 1009315
06:00+4nw1173100 0.1 1009215
09:00+5nnw0166100 0.1 1009413
12:00+6sse4366100 0.0 1009477
15:00+7ssw556896 0.0 1009993
18:00+8s667776 0.0 1008869
21:00+8s677298 0.1 1007959
2 october, sun
sun200:00+8sse6779100 0.1 1006719
03:00+8sse8893100 0.6 1005531
06:00+9ssw6794100 2.5 1004488
09:00+9sw469198 2.9 1005351
12:00+10ssw6893100 0.1 1005298
15:00+10ssw7992100 0.4 1006319
18:00+9ssw698995 0.1 1006339
21:00+10ssw69859 0.1 1007319
3 october, mon
mon300:00+10ssw588445 0.0 1007219
03:00+10s578785 0.1 1007180
06:00+10sse5688100 0.4 1008256
09:00+9sse6886100 0.5 1009378
12:00+9s6784100 0.1 1010379
15:00+9sse568562 0.1 1011357
18:00+9se458285 0.0 1012292
21:00+10ese4482100 0.0 1013120
4 october, tue
tue400:00+8e448597 0.0 1013154
03:00+7ene4487100 0.0 1014160
06:00+6ne5689100 0.0 1014188
09:00+6ne6889100 0.0 1013260
12:00+8nne5883100 0.0 1012322
15:00+9nne6975100 0.0 1011664
18:00+9nne61078100 0.0 1011794
21:00+7nne59849 0.0 1010576